Погода в Ганьчжоу

Китай     25°50′16″N   114°55′49″E
темп.,
°C
ветер,
м/с
пор.,
м/с
влажн.,
%
обл.,
%
осадки,
мм/ч
давл.,
гПа
погр.,
м
11 апреля, вс
вс1123:00+16с1293100 0.2 1021184
02:00+16с129493 0.2 1020156
05:00+15с119550 0.0 102048
08:00+18ссз008586 0.0 1021326
11:00+20ю137813 0.0 1020478
14:00+27ююз355186 0.0 10161728
17:00+26ююз2458100 0.0 1014404
20:00+24юв1164100 0.0 101517
12 апреля, пн
пн1223:00+23ююз017193 0.1 101717
02:00+20зсз01821 0.1 101532
05:00+19ю01870 0.0 101525
08:00+22ююз23711 0.0 1016310
11:00+28ююз584638 0.0 10161549
14:00+31юз573634 0.0 10122230
17:00+27ссз455795 0.0 1011337
20:00+21с358193 0.0 1015363
13 апреля, вт
вт1323:00+19с248411 0.0 1017274
02:00+18с239039 0.0 1016198
05:00+18с2391100 0.0 1016281
08:00+19с2283100 0.0 1017386
11:00+24с216688 0.0 1017866
14:00+24с3263100 0.0 10141114
17:00+24с3363100 0.0 1013787
20:00+20с3580100 0.0 1015371
14 апреля, ср
ср1423:00+18с3486100 0.0 1016321
02:00+17с2492100 0.6 1016411
05:00+17с2392100 0.8 1015330
08:00+17сз1193100 1.9 1016327
11:00+18ссз2291100 1.5 1016339
14:00+17с3490100 1.9 1015411
17:00+17с2394100 3.9 1014284
20:00+17ссз2394100 5.7 1016190
15 апреля, чт
чт1523:00+16ссз2395100 0.9 1017231
02:00+16с1294100 3.0 1015210
05:00+16с1292100 0.2 1015202
08:00+16ссз1296100 4.7 1016230
11:00+16св1195100 11.2 1016225
14:00+16ссз2295100 14.6 1015219
17:00+16с1295100 2.1 1015170
20:00+16с129695 2.6 1017129